Regional Weather Roundup
Issued by NWS Charleston, WV

Home | Current Version | Previous Version | Graphics & Text | Print | Product List | Glossary On
Versions: 1 2 3 4 5 6 7 8 9 10 11 12 13 14 15 16 17 18 19 20 21 22 23 24 25 26 27 28 29 30 31 32 33 34 35 36 37 38 39 40 41 42 43 44 45 46 47 48 49 50
000
ASUS41 KRLX 302210
RWRRLX
West Virginia Regional Weather Roundup
National Weather Service Charleston WV
600 PM EDT MON MAR 30 2015

Note: "fair" indicates few or no clouds below 12,000 feet with no
significant weather and/or obstructions to visibility.

WVZ003-302300-
Northern Panhandle of West Virginia

CITY           SKY/WX    TMP DP  RH WIND       PRES   REMARKS
WHEELING       CLOUDY    52  22  30 W18G31    29.94S
$$

WVZ009-302300-
Northwest West Virginia

CITY           SKY/WX    TMP DP  RH WIND       PRES   REMARKS
PARKERSBURG    PTSUNNY   57  24  28 W21G26    30.01F
$$

WVZ006-302300-
Western West Virginia

CITY           SKY/WX    TMP DP  RH WIND       PRES   REMARKS
HUNTINGTON     MOSUNNY   59  25  27 W10G21    30.02F
$$

WVZ015-302300-
West Central West Virginia

CITY           SKY/WX    TMP DP  RH WIND       PRES   REMARKS
CHARLESTON     MOSUNNY   59  23  25 NW13G21   30.00F
$$

WVZ022-031-302300-
North Central West Virginia

CITY           SKY/WX    TMP DP  RH WIND       PRES   REMARKS
CLARKSBURG     MOSUNNY   53  22  29 W18G26    29.96R
MORGANTOWN     PTSUNNY   54  18  24 W12G23    29.95R
$$

WVZ025-035-042-045-302300-
Southern West Virginia

CITY           SKY/WX    TMP DP  RH WIND       PRES   REMARKS
BECKLEY        SUNNY     52  21  29 W20G26    29.99S
LOGAN            N/A     57  25  28 VRB7G16   29.98S
BLUEFIELD      SUNNY     53  20  27 W16G23    30.00F
LEWISBURG      SUNNY     55  19  24 W16       29.97S
$$

WVZ047-302300-
Northern Mountains of West Virginia

CITY           SKY/WX    TMP DP  RH WIND       PRES   REMARKS
ELKINS         MOSUNNY   50  22  33 W16G22    29.95S
$$

WVZ052-302300-
Eastern Panhandle of West Virginia

CITY           SKY/WX    TMP DP  RH WIND       PRES   REMARKS
MARTINSBURG    MOSUNNY   59  20  22 W20G29    29.87R
PETERSBURG     MOSUNNY   56  16  21 NW21G33   29.91R
$$



USA.gov is the U.S. government's official web portal to all federal, state and local government web resources and services.